Home   Weather   Szeged   Past weeks

Flag for Hungary Past Weather in Szeged, Hungary — Yesterday and Last 2 Weeks

Now
49 °F

Passing clouds.


Feels Like: 49 °F
Forecast: 43 / 70 °F
Wind: 2 mph from North

Location: Szeged

Current Time: Sep 26, 2016 at 2:21:40 AM

Latest Report: Sep 26, 2016 at 2:00 AM


Visibility: 9 mi

Pressure: 30.14 "Hg

Humidity: 87%

Dew Point: 45 °F

Location of SzegedLocation

Past Weather in Szeged — Graph

°F

Szeged Temperature Yesterday

Maximum temperature yesterday: 69 °F (at 3:00 PM)
Minimum temperature yesterday: 47 °F (at 7:00 AM)
Average temperature yesterday: 58 °F

High & Low Weather Summary for the Past Weeks

 TemperatureHumidityPressure
High90 °F (Sep 11, 3:00 PM)98% (Sep 14, 6:00 AM)30.34 "Hg (Sep 14, 6:00 AM)
Low42 °F (Sep 23, 7:00 AM)29% (Sep 11, 3:00 PM)29.67 "Hg (Sep 19, 7:00 PM)
Average65 °F71%30.02 "Hg
* Reported Sep 11 1:00 AM — Sep 26 1:00 AM, Szeged, Weather by CustomWeather, © 2016

Note: Actual official high and low records may vary slightly from our data, if they occured in-between our weather recording intervals... More about our weather records

Advertising

Szeged Weather History for the Previous 24 Hours

Scroll right to see more
 ConditionsComfort  
Time TempWeatherWind HumidityBarometerVisibility
1:00 AM
Mon, Sep 26
50 °FPassing clouds.2 mph87%30.15 "Hg9 mi
12:00 AM52 °FPassing clouds.2 mph84%30.15 "Hg12 mi
11:00 PM
Sun, Sep 25
56 °FOvercast.2 mph80%30.14 "Hg12 mi
10:00 PM56 °FOvercast.2 mph79%30.14 "Hg12 mi
9:00 PM58 °FOvercast.2 mph76%30.14 "Hg12 mi
8:00 PM59 °FOvercast.2 mph75%30.13 "Hg12 mi
7:00 PM62 °FOvercast.2 mph67%30.12 "Hg12 mi
6:00 PM66 °FOvercast.3 mph57%30.12 "Hg12 mi
5:00 PM68 °FOvercast.3 mph50%30.11 "Hg12 mi
4:00 PM68 °FOvercast.3 mph46%30.12 "Hg12 mi
3:00 PM69 °FOvercast.3 mph47%30.13 "Hg12 mi
2:00 PM67 °FOvercast.3 mph48%30.15 "Hg12 mi
1:00 PM66 °FOvercast.3 mph52%30.17 "Hg11 mi
12:00 PM64 °FOvercast.3 mph58%30.19 "Hg9 mi
11:00 AM62 °FOvercast.2 mph62%30.20 "Hg9 mi
10:00 AM59 °FOvercast.2 mph72%30.21 "Hg7 mi
9:00 AM54 °FOvercast.2 mph81%30.21 "Hg7 mi
8:00 AM50 °FOvercast.2 mph94%30.21 "Hg4 mi
7:00 AM47 °FPartly sunny.1 mph96%30.20 "Hg4 mi
5:00 AM48 °FClear.2 mph95%30.21 "Hg5 mi
4:00 AM49 °FPassing clouds.2 mph96%30.21 "Hg6 mi
3:00 AM49 °FFog.No wind94%30.22 "Hg5 mi
2:00 AM51 °FPassing clouds.No wind94%30.22 "Hg12 mi
Weather by CustomWeather, © 2016

See weather overviewHow to use our weather pages